User: anonymous
Location: Melbourne
(37.8170°S, 144.9670°E)
Time: 00:15:27
(UTC+10:00)
Language:

ERBS - Orbit

View from above orbital plane
View from above orbital plane
View from above satellite
View from above satellite

Ground track
Ground track

The orbit data is extracted from the following two-line orbital elements,

1 15354U 84108B   14273.37497348  .00011684  00000-0  40971-3 0  6026
2 15354 057.0143 050.9011 0019980 045.6206 314.6475 15.29761363645712
Epoch (UTC): 30 September 2014 08:59:57
Eccentricity: 0.0019980
inclination: 57.0143°
perigee height: 463 km
apogee height: 490 km
right ascension of ascending node: 50.9011°
argument of perigee: 45.6206°
revolutions per day: 15.29761363
mean anomaly at epoch: 314.6475°
orbit number at epoch: 64571

The dashed part of the orbit path shows where the satellite is in the earth's shadow,  

DLR